Weather History for KISN - November, 2011

Change the Weather History Date:

Saturday, November 26, 2011

  Actual Average Record
Temperature  
Mean Temperature 26 °F 21 °F  
Max Temperature 38 °F 32 °F 58 °F (1963)
Min Temperature 14 °F 11 °F -19 °F (1985)
Degree Days  
Heating Degree Days 39 44  
Month to date heating degree days 938 956  
Since 1 July heating degree days 1631 1983  
Cooling Degree Days 0 0  
Month to date cooling degree days 0 0  
Year to date cooling degree days 452 456  
Moisture  
Dew Point 15 °F    
Average Humidity 60    
Maximum Humidity 88    
Minimum Humidity 32    
Precipitation  
Precipitation 0.00 in 0.02 in 0.40 in (1896)
Month to date precipitation 0.26 0.58  
Year to date precipitation 18.92 13.68  
Sea Level Pressure  
Sea Level Pressure 30.39 in    
Wind  
Wind Speed 12 mph (WNW)    
Max Wind Speed 30 mph    
Max Gust Speed 40 mph    
Visibility 10 miles    
Events      
T = Trace of Precipitation, MM = Missing Value Source: NWS Daily Summary

Daily Weather History Graph

Daily Weather History Graph

Search for Another Location

Airport or City:

Trip Planner

Search our weather history database for the weather conditions in past years. The results will help you decide how hot, cold, wet, or windy it might be!

Date:

Astronomy

Nov. 26, 2011 Rise Set
Actual Time 8:17 AM CST 5:06 PM CST
Civil Twilight 7:41 AM CST 5:41 PM CST
Nautical Twilight 7:03 AM CST 6:20 PM CST
Astronomical Twilight 6:25 AM CST 6:57 PM CST
Moon 9:55 AM CST (11/26) 6:35 PM CST (11/26)
Length of Visible Light 9h 59m
Length of Day
8h 48m
Waxing Crescent, 3% of the Moon is Illuminated
Nov 26
Waxing Crescent
Dec 2
First Quarter
Dec 10
Full
Dec 17
Last Quarter
Dec 24
New

Hourly Weather History & Observations

Time (CST) Temp. Windchill Dew Point Humidity Pressure Visibility Wind Dir Wind Speed Gust Speed Precip Events Conditions
12:52 AM 33.1 °F 21.5 °F 27.0 °F 78% 30.11 in 10.0 mi WNW 19.6 mph 29.9 mph N/A   Clear
1:52 AM 33.1 °F 20.3 °F 24.1 °F 70% 30.17 in 10.0 mi NW 24.2 mph 33.4 mph N/A   Clear
2:52 AM 30.9 °F 20.2 °F 23.0 °F 72% 30.22 in 10.0 mi WNW 15.0 mph 24.2 mph N/A   Clear
3:52 AM 30.0 °F 19.5 °F 19.9 °F 66% 30.27 in 10.0 mi WNW 13.8 mph 20.7 mph N/A   Clear
4:52 AM 28.9 °F 17.3 °F 17.1 °F 61% 30.31 in 10.0 mi WNW 16.1 mph 21.9 mph N/A   Clear
5:52 AM 28.4 °F 17.0 °F 15.8 °F 59% 30.26 in 10.0 mi WNW 15.0 mph - N/A   Clear
6:52 AM 27.0 °F 14.3 °F 16.0 °F 63% 30.37 in 10.0 mi WNW 17.3 mph 25.3 mph N/A   Clear
7:52 AM 26.1 °F 12.7 °F 16.0 °F 66% 30.39 in 10.0 mi WNW 18.4 mph 24.2 mph N/A   Clear
8:52 AM 26.1 °F 14.5 °F 14.0 °F 60% 30.43 in 10.0 mi WNW 13.8 mph - N/A   Clear
9:52 AM 28.0 °F 14.6 °F 14.0 °F 56% 30.45 in 10.0 mi WNW 20.7 mph 26.5 mph N/A   Clear
10:52 AM 30.9 °F 18.7 °F 12.0 °F 46% 30.46 in 10.0 mi NW 19.6 mph 28.8 mph N/A   Clear
11:52 AM 32.0 °F 19.5 °F 10.9 °F 42% 30.46 in 10.0 mi NW 21.9 mph 32.2 mph N/A   Clear
12:52 PM 34.0 °F 21.8 °F 9.0 °F 35% 30.47 in 10.0 mi NW 23.0 mph 28.8 mph N/A   Clear
1:52 PM 36.0 °F 26.3 °F 10.0 °F 34% 30.45 in 10.0 mi WNW 16.1 mph 24.2 mph N/A   Clear
2:52 PM 37.9 °F 29.6 °F 10.0 °F 32% 30.44 in 10.0 mi WNW 13.8 mph - N/A   Clear
3:52 PM 37.0 °F 28.9 °F 14.0 °F 39% 30.46 in 10.0 mi WNW 12.7 mph - N/A   Clear
4:52 PM 33.1 °F 27.7 °F 15.1 °F 48% 30.47 in 10.0 mi WNW 5.8 mph - N/A   Clear
5:52 PM 21.0 °F - 14.0 °F 74% 30.49 in 10.0 mi Calm Calm - N/A   Clear
6:52 PM 18.0 °F - 12.9 °F 81% 30.50 in 10.0 mi Calm Calm - N/A   Clear
7:52 PM 19.9 °F 14.9 °F 14.0 °F 78% 30.48 in 10.0 mi WSW 3.5 mph - N/A   Clear
8:52 PM 16.0 °F - 12.0 °F 84% 30.48 in 10.0 mi Calm Calm - N/A   Clear
9:52 PM 14.0 °F - 10.9 °F 88% 30.47 in 10.0 mi Calm Calm - N/A   Clear
10:52 PM 18.0 °F 12.7 °F 12.9 °F 81% 30.43 in 10.0 mi SSW 3.5 mph - N/A   Clear
11:52 PM 17.1 °F - 12.9 °F 84% 30.40 in 10.0 mi Calm Calm - N/A   Clear